www.pogodaiklimat.ru

Погода и климат >> Архив погоды >> Чехия >> Докшаны


ПОГОДА в Докшанах

  • Прогноз погоды в Докшанах
  • Монитор погоды в Докшанах

АРХИВ ПОГОДЫ в Докшанах

Время (UTC), дата Ветер
(напр.,м/с)
 
Видим.   Явления Облачность Т
(С)
Тd
(С)
f
(%)
Тe
(С)
Тes
(С)
Комфортность P
(гПа)
Po
(гПа)
Тmin
(С)
Tmax
(С)
R
(мм)
R24
(мм)
S
(см)
04 12.06 16 км н/о +17.8 +17.6 99 1008.5 989.9
05 12.06 В 3 30 км н/о +21.1 +18.3 84 +25 +25 комфорт 1008.1 989.7
06 12.06 В 3 20 км ясно +23.4 +18.7 75 +30 +33 очень
душно
1007.9 989.6 +16.8
07 12.06 В 4 35 км ясно +24.7 +18.7 69 +29 +35 душно 1007.7 989.5
08 12.06 В 4 35 км ясно +26.3 +18.4 62 +31 +39 душно 1007.4 989.3
09 12.06 ЮВ 4 35 км ясно +27.7 +18.8 58 +33 +43 очень
душно
1006.8 988.8
10 12.06 В 6 35 км ясно +28.9 +18.9 55 +34 +41 очень
душно
1006.2 988.3
11 12.06 ЮВ 6
{11}
35 км ясно +30.3 +18.1 48 +35 +42 очень
душно
1005.6 987.8
12 12.06 ЮВ 6
{12}
35 км ясно +31.6 +15.9 39 +34 +41 душно 1005.1 987.4
13 12.06 ЮВ 7
{12}
30 км ясно +32.7 +14.3 33 +34 +38 очень
жарко
1004.3 986.6
14 12.06 ЮВ 8-13
{13}
35 км ясно +32.8 +15.4 35 +35 +37 душно 1003.6 985.9
15 12.06 ЮВ 7
{13}
35 км 1/1 1500 м
[Cu hum]
+32.9 +14.6 33 +34 +36 очень
жарко
1003.4 985.8
16 12.06 Ю 8-15
{13}
27 км н/о +28.5 +17.0 50 +32 +32 душно 1004.4 986.5
17 12.06 СЗ 6-11
{17}
35 км гроза, ливневой дождь 8/1 900 м
[Cb cap Ac As]
+22.3 +19.7 85 +28 +29 душно 1007.3 989.0
18 12.06 СЗ 3
{17}
40 км в посл. час гроза {ливн. осадки} 9/1 1500 м
[Cu med, cong Cc]
+22.1 +18.7 81 +27 +28 душно 1009.3 990.9 +33.4 1
19 12.06 45 км 9/0
[Ac As]
+21.0 +18.5 86 1010.5 992.0
20 12.06 40 км 3/0
[Ac As]
+19.4 +15.7 79 1010.8 992.2
21 12.06 Ю 2 30 км {дымка} н/о +17.0 +16.8 99 +17 +17 1011.7 993.0
22 12.06 В 1 26 км в посл. час дождь {ливн. осадки} н/о +16.6 +16.3 98 +17 +17 1012.4 993.6
23 12.06 З 2 19 км н/о +16.0 +16.0 100 +16 +16 1012.7 993.9
00 13.06 нст 2 35 км {ливн. осадки} н/о +17.5 +15.6 89 +18 +18 1013.0 994.3 0.1
01 13.06 35 км н/о +16.7 +13.5 81 1013.1 994.3
02 13.06 35 км н/о +14.8 +13.4 91 1013.3 994.4
03 13.06 З 3 35 км слаб. дождь н/о +16.4 +12.9 80 +16 +16 1013.9 995.0
04 13.06 35 км слаб. ливневой дождь н/о +16.0 +14.2 89 1014.3 995.4
05 13.06 35 км в посл. час дождь {ливн. осадки} н/о +17.2 +12.7 75 1014.8 996.0
06 13.06 нст 2 35 км 8/3 960 м
[Sc Ac As]
+17.9 +13.1 73 +18 +20 1014.9 996.1 +14.8 0.3
07 13.06 50 км 8/0
[Ac As]
+19.0 +13.3 70 1015.4 996.7
08 13.06 С 3 50 км 5/1 1200 м
[Cu med, cong Ac As]
+20.3 +13.3 64 +23 +29 комфорт 1015.2 996.6
09 13.06 нст 2 60 км 3/3 960 м
[Cu med, cong]
+21.9 +13.3 58 +25 +35 комфорт 1015.0 996.5
10 13.06 60 км 3/3 1500 м
[Cu med, cong]
+22.3 +13.7 58 1014.7 996.2
11 13.06 СВ 3 60 км 4/4 1410 м
[Cu med, cong]
+22.8 +13.6 56 +26 +35 жарко 1014.7 996.2
12 13.06 нст 2 60 км 4/4 1320 м
[Cu med, cong]
+24.6 +14.6 54 +27 +37 жарко 1014.1 995.8
13 13.06 60 км 4/4 1500 м
[Cu med, cong]
+25.2 +14.3 51 1013.9 995.6
14 13.06 60 км 5/5 1110 м
[Cu med, cong]
+24.8 +13.5 49 1013.7 995.4
15 13.06 нст 1 60 км 4/4 1500 м
[Cu med, cong]
+25.2 +13.9 50 +28 +33 жарко 1013.6 995.3
16 13.06 60 км 1/1 1050 м
[Cu med, cong]
+25.7 +14.4 50 1013.3 995.1
17 13.06 60 км ясно +24.8 +14.4 52 1013.0 994.7
18 13.06 нст 2 60 км ясно +23.5 +15.3 60 +26 +27 жарко 1013.4 995.0 +26.4
19 13.06 60 км ясно +20.8 +15.7 73 1014.3 995.7
20 13.06 СВ 1 50 км 4/0
[Ac trans]
+18.9 +15.7 82 +21 +21 комфорт 1015.5 996.8
21 13.06 нст 1 35 км {дымка} н/о +18.8 +16.4 86 +21 +21 комфорт 1015.9 997.2
22 13.06 29 км н/о +18.1 +16.4 90 1016.6 997.8
23 13.06 ЮВ 1 30 км н/о +16.8 +16.3 97 +18 +18 1016.9 998.0
00 14.06 нст 1 30 км {дымка} н/о +15.9 +15.8 99 +17 +17 1017.1 998.2
01 14.06 ЮЗ 1 15 км н/о +14.2 +14.2 100 +14 +14 1017.5 998.4
02 14.06 Ю 1 17 км н/о +13.9 +13.9 100 +14 +14 1018.2 999.1
03 14.06 штиль 0 9000 м дымка н/о +12.7 +12.7 100 +12 +12 1018.7 999.5
04 14.06 В 1 12 км н/о +13.3 +13.3 100 +13 +13 1019.3 1000.1
05 14.06 ЮВ 1 50 км ясно +17.2 +15.7 91 +18 +20 1019.3 1000.4
06 14.06 нст 1 50 км ясно +19.5 +16.6 83 +23 +28 комфорт 1019.3 1000.6 +12.0
07 14.06 50 км 1/0
[Ci fib]
+21.7 +16.7 73 1019.3 1000.7
08 14.06 50 км 1/0
[Ci fib]
+24.3 +15.8 59 1018.9 1000.5
09 14.06 нст 2 60 км 3/0
[Ci fib]
+26.5 +13.0 43 +28 +42 жарко 1018.7 1000.4
10 14.06 60 км 4/0
[Ci fib]
+27.7 +13.0 40 1018.4 1000.2
11 14.06 60 км 4/0
[Ci fib]
+28.9 +11.8 35 1017.9 999.7
12 14.06 ЮВ 4 60 км 3/0
[Ci fib]
+29.3 +10.6 31 +29 +40 жарко 1017.3 999.2
13 14.06 ЮВ 5 60 км 1/0
[Ci fib]
+29.8 +10.7 31 +30 +38 жарко 1016.6 998.5
14 14.06 ЮВ 5 60 км 1/0
[Ci fib]
+30.0 +10.3 29 +30 +36 жарко 1016.1 998.0
15 14.06 ЮВ 4 60 км 5/0
[Ci fib]
+30.5 +11.8 32 +31 +36 жарко 1015.6 997.6
16 14.06 ЮВ 4 60 км 6/0
[Ac As Ci fib]
+30.1 +12.4 34 +31 +33 жарко 1015.1 997.1
17 14.06 В 3 50 км 10/0
[Ac As Ci fib]
+28.2 +15.0 45 +31 +32 душно 1014.7 996.6
18 14.06 нст 1 50 км 8/0
[Ac As Ci fib]
+26.6 +17.2 56 +31 +31 душно 1014.8 996.6 +31.0
19 14.06 СВ 2 50 км 8/0
[Ac As Ci fib]
+24.2 +16.7 63 +28 +28 душно 1014.0 995.7
20 14.06 50 км 5/0
[Ci fib]
+22.9 +16.8 68 1013.7 995.3
21 14.06 нст 1 35 км {дымка} н/о +21.2 +17.1 77 +25 +25 комфорт 1013.8 995.3
22 14.06 В 4 17 км н/о +23.6 +19.0 75 +28 +28 душно 1013.6 995.3
23 14.06 В 2 30 км н/о +22.8 +19.4 81 +29 +29 очень
душно
1013.2 994.8
00 15.06 В 3 24 км {дымка} н/о +23.0 +20.0 83 +30 +30 очень
душно
1012.3 994.0
01 15.06 В 3 20 км н/о +22.6 +19.8 84 +29 +29 очень
душно
1011.8 993.4
02 15.06 В 3 19 км н/о +22.4 +19.7 85 +28 +28 душно 1011.1 992.7
03 15.06 В 2 15 км {дымка} н/о +21.4 +19.4 88 +26 +26 душно 1010.6 992.2
04 15.06 15 км н/о +21.2 +19.4 89 1010.5 992.1
05 15.06 В 2 18 км н/о +23.1 +19.8 82 +30 +30 очень
душно
1010.3 992.0
06 15.06 В 3 22 км 3/0
[Ac trans]
+24.6 +19.9 75 +30 +33 очень
душно
1010.1 991.9 +19.8
07 15.06 22 км 5/0
[Ac trans]
+26.4 +19.0 64 1010.1 992.0
08 15.06 22 км 5/0
[Ac trans]
+27.7 +19.5 61 1010.1 992.1
09 15.06 ЮВ 3 25 км 6/0
[Ac trans]
+28.2 +19.5 59 +34 +42 очень
душно
1010.1 992.1
10 15.06 18 км 5/0
[Ac trans Ci sp]
+29.3 +19.0 54 1010.2 992.3
11 15.06 ЮЗ 3 18 км 5/0
[Ac trans Ci sp]
+29.6 +17.2 47 +33 +44 душно 1010.3 992.4
12 15.06 нст 2 25 км 1/1 1500 м
[Cu hum Cc]
+31.9 +17.3 42 +36 +51 опасность
солнечного
удара
1010.1 992.3
13 15.06 З 6 25 км 3/3 1500 м
[Cu med, cong]
+33.2 +14.7 33 +35 +39 душно 1009.9 992.2
14 15.06 ЮЗ 4
{11}
25 км гроза без осадков 5/5 1500 м
[Cb cap]
+32.7 +14.4 33 +34 +38 очень
жарко
1009.9 992.1
15 15.06 З 7-12
{12}
25 км в посл. час гроза 3/1 1500 м
[Cu med, cong Ac trans Ci fib]
+32.6 +12.6 30 +33 +35 жарко 1009.1 991.3
16 15.06 З 6
{11}
35 км н/о +31.2 +13.1 33 +32 +32 жарко 1009.7 991.8
17 15.06
{12}
40 км 6/3 1500 м
[Cu med, cong Ac As Ci sp]
+28.3 +16.2 48 1011.0 993.0
18 15.06 ЮВ 2
{12}
45 км 6/3 1500 м
[Cu med, cong Ac trans Ci sp]
+26.3 +16.7 56 +30 +30 душно 1011.0 992.8 +34.2
19 15.06 ЮВ 2 45 км 6/0
[Ac trans Ci sp]
+24.7 +17.5 64 +29 +29 душно 1012.1 993.8
20 15.06 55 км 5/0
[Ac As Ci sp]
+22.1 +17.3 74 1012.6 994.2
21 15.06 нст 1 15 км {дымка} н/о +20.8 +17.5 81 +26 +26 душно 1013.9 995.4
22 15.06 8000 м дымка н/о +20.8 +17.4 81 1014.8 996.2
23 15.06 ЮВ 4 35 км н/о +20.2 +17.8 86 +23 +23 комфорт 1015.6 997.0
00 16.06 нст 2 35 км в посл. час дождь {ливн. осадки} н/о +19.2 +17.6 90 +22 +22 комфорт 1015.5 996.8 0.1
01 16.06 С 2 35 км н/о +19.5 +16.3 82 +22 +22 комфорт 1015.0 996.4
02 16.06 35 км н/о +20.2 +13.8 67 1015.1 996.5
03 16.06 СЗ 4 35 км {дымка} н/о +19.6 +12.3 63 +21 +21 комфорт 1015.8 997.1
04 16.06 35 км н/о +19.6 +11.6 60 1016.4 997.7
05 16.06 35 км н/о +19.5 +13.4 68 1016.9 998.2
06 16.06 нст 1 40 км 10/0 1500 м
[Ac As]
+19.6 +11.8 61 +22 +24 комфорт 1017.8 999.1 +18.6 0.1
07 16.06 СЗ 3 20 км слаб. дождь 10/3 1470 м
[Sc Ac As]
+16.7 +14.6 87 +16 +18 1019.8 1000.9
08 16.06 СЗ 3 35 км в посл. час дождь 10/5 1140 м
[Sc Ac As]
+17.5 +14.9 85 +18 +19 1020.1 1001.2
09 16.06 С 3 40 км в посл. час дождь 9/0 2000 м
[Ac As]
+19.3 +13.7 70 +21 +25 комфорт 1020.0 1001.2
10 16.06 55 км 9/0
[Ac As]
+19.3 +12.8 66 1020.0 1001.2
11 16.06 55 км в посл. час дождь 9/0
[Ac As]
+19.7 +12.2 62 1020.3 1001.5
12 16.06 нст 2 55 км {дождь} 5/0
[Ac As]
+21.6 +10.3 49 +23 +34 комфорт 1020.3 1001.6 1
13 16.06 55 км 4/1 1500 м
[Cu med, cong Ac As]
+23.3 +10.9 46 1019.9 1001.4
14 16.06 СВ 3 65 км 4/4 1500 м
[Cu med, cong]
+22.8 +10.7 46 +25 +31 комфорт 1019.8 1001.2
15 16.06 нст 2 65 км 8/0 2000 м
[Ac As Ci fib]
+23.7 +11.3 46 +25 +30 комфорт 1019.5 1001.0
16 16.06 С 3 35 км н/о +22.8 +11.6 49 +25 +25 комфорт 1019.6 1001.0
17 16.06 С 3 65 км 9/0
[Ac As]
+21.8 +12.0 54 +24 +25 комфорт 1019.7 1001.1
18 16.06 С 3 65 км 9/0 2000 м
[Ac As]
+21.3 +12.4 57 +24 +24 комфорт 1020.4 1001.7 +24.8 1
19 16.06 С 2 65 км 10/0
[Ac As]
+20.4 +12.9 62 +23 +23 комфорт 1020.9 1002.2
20 16.06 СЗ 1 60 км 10/0
[Ac As]
+19.4 +13.3 68 +22 +22 комфорт 1021.2 1002.4
21 16.06 СЗ 1 35 км {дымка} н/о +18.6 +12.8 69 +20 +20 1021.2 1002.4
22 16.06 35 км н/о +18.4 +11.0 62 1022.0 1003.1
23 16.06 35 км н/о +18.0 +11.5 66 1022.0 1003.1
00 17.06 ЮВ 1 35 км {дымка} н/о +15.3 +12.7 84 +16 +16 1022.1 1003.0
01 17.06 35 км н/о +14.6 +12.0 84 1021.9 1002.8
02 17.06 ЮВ 1 35 км н/о +13.1 +11.9 92 +13 +13 1022.4 1003.2
03 17.06 штиль 0 35 км {дымка} н/о +12.5 +11.4 93 +12 +12 1022.7 1003.4
04 17.06 ЮВ 1 30 км н/о +12.4 +12.4 100 +12 +12 1023.0 1003.7
05 17.06 35 км н/о +15.7 +13.5 87 1022.9 1003.8
06 17.06 нст 1 >70 км 3/0
[Ac trans Ci fib]
+19.3 +11.3 60 +21 +26 комфорт 1022.7 1003.9 +11.8
07 17.06 >70 км 3/0
[Ci fib]
+20.7 +12.0 57 1022.3 1003.6
08 17.06 >70 км 1/1 1500 м
[Cu hum Ci fib]
+22.1 +12.1 53 1021.9 1003.3
09 17.06 нст 2 >70 км 1/1 1500 м
[Cu hum Ci fib]
+23.9 +11.1 45 +25 +38 комфорт 1021.5 1003.0
10 17.06 СВ 3 >70 км 1/1 1500 м
[Cu hum Ci fib]
+24.9 +9.5 38 +26 +38 жарко 1021.2 1002.7
11 17.06 В 3 >70 км 4/4 1500 м
[Cu med, cong]
+25.4 +10.1 38 +26 +35 жарко 1020.9 1002.5
12 17.06 СВ 3 >70 км 4/4 1500 м
[Cu med, cong Ci fib]
+26.7 +9.5 34 +27 +36 жарко 1020.4 1002.1
13 17.06 >70 км 5/4 1500 м
[Cu med, cong Ac trans Ci fib]
+25.3 +10.4 39 1020.2 1001.8
14 17.06 >70 км 4/4 1500 м
[Cu med, cong Ac trans Ci fib]
+26.1 +10.7 38 1019.9 1001.5
15 17.06 нст 2 >70 км 4/4 1500 м
[Cu med, cong]
+24.9 +11.8 44 +26 +31 жарко 1019.4 1001.0
16 17.06 В 4 35 км н/о +25.6 +12.7 45 +27 +27 жарко 1019.0 1000.6
17 17.06 >70 км 4/3 1500 м
[Cu med, cong Ac trans Ci fib]
+24.1 +14.0 53 1018.7 1000.3
18 17.06 СВ 4 >70 км 4/3 1500 м
[Cu med, cong Ac trans Ci fib]
+24.6 +12.8 48 +27 +27 жарко 1018.6 1000.2 +27.8
19 17.06 В 2 >70 км 3/1 1500 м
[Cu med, cong Ac trans Ci fib]
+22.2 +13.7 59 +25 +25 комфорт 1018.8 1000.2
20 17.06 В 1 >70 км 3/0
[Ac As Ci fib]
+18.5 +14.0 75 +20 +20 1019.3 1000.5
21 17.06 ЮВ 2 35 км {дымка} н/о +16.8 +13.9 83 +17 +17 1019.7 1000.8
22 17.06 35 км н/о +16.5 +13.7 84 1020.1 1001.1
23 17.06 35 км н/о +15.8 +14.1 90 1020.2 1001.2
00 18.06 СЗ 1 35 км {дымка} н/о +14.3 +13.7 96 +15 +15 1020.0 1000.9
01 18.06 35 км н/о +12.5 +12.2 98 1019.8 1000.6
02 18.06 штиль 0 35 км н/о +11.1 +11.1 100 +10 +10 1019.7 1000.4
03 18.06 Ю 1 35 км {дымка} н/о +11.4 +11.4 100 +11 +11 1019.6 1000.3
04 18.06 Ю 1 30 км н/о +11.7 +11.6 99 +11 +11 1019.6 1000.3
05 18.06 штиль 0 30 км н/о +15.1 +14.0 93 +15 +15 1019.6 1000.6
06 18.06 нст 1 60 км 5/3 1140 м
[Cu med, cong Ac As]
+18.0 +15.0 83 +19 +22 1019.4 1000.6 +10.3
07 18.06 60 км 5/1 1500 м
[Cu med, cong Ac As]
+21.3 +13.2 60 1019.0 1000.4
08 18.06 В 3 60 км 3/0
[Ci fib]
+23.3 +12.6 51 +26 +35 жарко 1018.6 1000.1
09 18.06 В 4 60 км 1/1 1500 м
[Cu med, cong]
+24.6 +11.5 44 +26 +35 жарко 1018.1 999.7
10 18.06 В 3 60 км 1/1 1500 м
[Cu med, cong]
+25.8 +11.1 40 +27 +40 жарко 1017.3 999.0
11 18.06 ЮВ 4 60 км 3/3 1410 м
[Cu med, cong]
+26.1 +11.6 40 +27 +36 жарко 1016.8 998.5
12 18.06 В 4 60 км 4/1 1200 м
[Cu med, cong Ci fib]
+26.5 +11.4 39 +28 +37 жарко 1016.2 997.9
13 18.06 В 3 60 км 4/4 1110 м
[Cu med, cong Ci fib]
+27.8 +11.5 36 +29 +36 жарко 1015.6 997.4
14 18.06 ЮВ 4-12
{12}
60 км 3/3 1300 м
[Cu med, cong]
+27.8 +11.7 37 +29 +34 жарко 1015.1 996.9
15 18.06 В 4
{12}
60 км 3/3 1230 м
[Cu med, cong]
+28.0 +11.2 35 +29 +33 жарко 1014.4 996.2
16 18.06 В 3 60 км 1/1 1500 м
[Cu med, cong]
+27.5 +11.7 37 +28 +32 жарко 1014.0 995.8
17 18.06 В 3 60 км 1/1 1440 м
[Cu med, cong]
+26.8 +12.2 40 +28 +30 жарко 1013.8 995.6
18 18.06 В 2
{12}
60 км 1/1 1140 м
[Cu med, cong]
+25.5 +13.9 49 +28 +28 жарко 1013.8 995.5 +28.7
19 18.06 В 3 60 км 4/1 1200 м
[Cu med, cong Ac trans]
+22.8 +14.3 59 +26 +26 жарко 1013.9 995.5
20 18.06 60 км 4/0
[Ac As]
+19.5 +14.7 74 1014.5 995.8
21 18.06 нст 1 4300 м дымка н/о +17.1 +14.4 84 +18 +18 1014.5 995.7
22 18.06 24 км н/о +17.5 +14.4 82 1014.3 995.5
23 18.06 6000 м дымка н/о +15.6 +13.9 90 1014.1 995.2
00 19.06 нст 1 35 км {дымка} н/о +15.2 +14.0 93 +16 +16 1013.9 995.0
01 19.06 Ю 1 35 км н/о +15.8 +14.7 93 +16 +16 1013.7 994.8
02 19.06 штиль 0 30 км н/о +14.5 +14.2 98 +14 +14 1013.7 994.7
03 19.06 штиль 0 35 км {дымка} н/о +14.3 +13.9 97 +14 +14 1013.5 994.5

 

Местоположение метеостанции Докшаны (Чехия): широта 50.47 долгота 14.17 высота над уровнем моря 159 м.

В архиве по умолчанию представлена погода в Докшанах за последнюю неделю. Архивные данные за месяц целиком и за предыдущие месяцы, начиная с января 2011 года, Вы можете получить, выбрав интересующий диапазон дат из раскрывающегося списка и нажав кнопку "Ввод!".


*Определитесь, кто Вы:
робот инопланетянин человек

Внимание! Время в таблицах - всемирное. Для получения местного времени необходимо прибавить поправку, которая равна 1 ч.

Смотрите также архив погоды в соседних городах и на ближайших метеорологических станциях:

Погода в Милешовке (Чехия) (19 км)
Погода в Усти-над-Лабем (Чехия) (25 км)
Погода в Циннвальд-Георгенфельде (Германия) (41 км)
Погода в Праге (Чехия) (42 км)
Погода в Прага аэропорту (Чехия) (47 км)
Погода в Лихтенхайн-Миттельндорфе (Германия) (51 км)
Погода в Праге-Либус (Чехия) (54 км)
Погода в Тушимице (Чехия) (60 км)
Погода в Либереце (Чехия) (69 км)
Погода в Мариенберге (Германия) (75 км)

Пояснения к столбцам:

Ветер - указаны скорость ветра в м/с - средняя за 10 мин, порывы в срок и между сроками (в фигурных скобках) и направление, откуда дует ветер: С - северный, СВ - северо-восточный, В - восточный, ЮВ - юго-восточный, Ю - южный, ЮЗ - юго-западный, З - западный, СЗ - северо-западный.
Видимость - горизонтальная дальность видимости в метрах или километрах. При видимости от 1 до 10 км при отсутствии осадков обычно наблюдается дымка, при ухудшении видимости до 1 км и менее - туман. В сухую погоду видимость может ухудшаться дымом, пылью или мглою.
Явления - указаны атмосферные явления, наблюдавшиеся в срок или в последний час перед сроком; фигурными скобками обозначены явления, наблюдавшиеся между сроками (за 1-3 часа до срока); квадратными скобками обозначены град или гололедные отложения с указанием их диаметра в мм.
Облачность - указаны через наклонную черту общая и нижняя облачность в баллах и высота нижней границы облаков в метрах; квадратными скобками обозначены формы облаков: Ci - перистые, Cs - перисто-слоистые, Cc - перисто-кучевые, Ac - высококучевые, As - высокослоистые, Sc - слоисто-кучевые, Ns - слоисто-дождевые, Cu - кучевые, Cb - кучево-дождевые. Подробнее классификацию облаков см. в Атласе облаков (PDF).
T - Температура воздуха - температура, измеренная на высоте 2 м над землей.
Td - Температура точки росы - температура, при понижении до которой содержащийся в воздухе водяной пар достигнет насыщения.
f - Относительная влажность воздуха - влажноcть воздуха, измеренная на высоте 2 м над землей.
Te - Эффективная температура - температура, которую ощущает одетый по сезону человек в тени. Характеристика душности погоды. При расчете учитывается влияние влажности воздуха и скорости ветра на теплоощущения человека.
Tes - Эффективная температура на солнце - температура, которую ощущает человек, с поправкой на солнечный нагрев. Характеристика знойности погоды. Зависит от высоты солнца над горизонтом, облачности и скорости ветра. Ночью, в пасмурную погоду, а также при ветре 12 м/с и более поправка равна нулю.
P - Атмосферное давление - приведенное к уровню моря атмосферное давление.
Po - Атмосферное давление - измеренное на уровне метеостанции атмосферное давление.
Tmin - Минимальная температура - минимум температуры воздуха на высоте 2 м над землей.
Tmax - Максимальная температура - максимум температуры воздуха на высоте 2 м над землей.
R - Количество осадков - Количество выпавших осадков за период времени, мм. При наведении курсора мыши на число - период времени, за который выпало указанное количество осадков.
R24 - Количество осадков - Количество выпавших осадков за 24 часа, мм.
S - Снежный покров - Высота снежного покрова, см. При наведении курсора мыши на число - состояние снежного покрова и степень покрытия местности в баллах.